Wind_Speed
21 21 24 23 20 18 23 31 34 31 22 16 16 15 15 13 11 11 10 9 8 7 7 8 7 7 7 6 5 5 4 4 3 2 2 1 1 1 1 1 1 1 2 3 3 4 5 5 6 6 5 5 5 5 5 5 6 6 6 7 7 7 7 7 7 9 10 11 12 13 13 15 15 16 16 17 18 18 18 17 17 17 18 19 19
19 17 18 17 15 17 20 28 33 31 24 19 18 17 19 17 15 14 12 11 10 9 8 7 7 7 7 6 6 6 5 5 6 6 6 6 6 6 6 6 6 6 6 6 7 8 8 8 9 9 9 9 9 9 9 9 9 10 10 10 10 9 9 9 8 8 9 11 12 13 14 15 15 16 16 17 18 19 20 20 19 19 19 20 21
17 15 16 16 15 16 17 22 29 30 27 23 21 21 23 21 19 18 15 14 12 10 9 9 9 9 8 8 8 8 9 9 9 10 10 10 11 12 12 12 11 11 10 10 10 10 10 11 11 12 12 12 13 13 13 14 14 14 14 14 14 13 13 12 11 10 10 12 13 13 14 15 15 16 16 17 18 19 20 21 22 22 22 22 22
16 15 16 17 17 16 17 20 26 29 29 26 25 27 26 25 24 22 20 18 16 13 12 12 11 10 9 9 9 9 10 10 10 11 11 12 13 13 14 15 15 15 15 14 13 13 13 13 13 14 15 15 15 16 16 17 17 17 18 18 18 18 17 17 16 15 14 14 15 16 16 16 17 17 17 17 18 19 20 21 22 23 24 25 25
15 16 17 17 17 17 18 21 25 28 28 27 29 32 30 28 27 25 23 21 20 19 19 17 16 14 12 10 9 10 10 10 10 10 12 13 14 15 15 16 17 18 18 18 17 17 16 16 16 16 17 17 18 19 20 20 20 19 20 20 21 21 22 21 21 20 20 19 19 19 18 19 19 19 18 18 18 19 20 21 22 23 24 25 27
15 15 15 15 15 16 18 21 24 27 29 30 34 37 35 33 32 30 27 24 23 22 21 21 20 17 15 13 13 13 12 12 12 13 14 15 16 18 19 20 21 22 22 22 21 19 18 18 18 18 18 20 21 22 23 23 23 22 22 22 23 23 24 25 25 25 24 24 23 23 22 22 21 21 21 21 20 20 19 19 21 22 23 24 25
16 16 15 14 15 18 19 21 23 26 30 34 38 39 37 35 35 34 31 28 27 25 22 20 18 14 13 15 17 15 14 15 16 17 20 20 20 22 24 25 26 25 25 24 23 22 20 19 19 20 21 22 23 24 25 26 26 26 26 25 25 25 26 27 28 28 28 28 27 26 26 26 25 24 24 24 24 23 22 20 20 21 22 23 23
16 16 16 15 17 19 20 22 25 28 30 34 37 37 37 36 35 34 32 30 30 26 21 19 18 17 16 17 18 16 15 17 19 20 22 23 24 28 30 30 29 28 27 26 25 23 20 19 18 19 21 22 23 24 26 27 28 28 28 28 27 27 28 28 29 30 30 31 31 30 29 28 28 27 27 27 27 26 26 25 23 22 22 23 23
15 16 17 16 17 19 19 22 27 30 29 32 36 36 35 36 36 34 31 28 26 24 21 19 18 20 20 20 21 19 17 17 20 23 23 24 26 28 30 31 30 28 28 27 26 24 21 18 17 18 20 22 23 25 26 28 30 30 30 30 30 30 30 30 31 31 31 32 32 32 31 30 30 30 30 29 29 28 29 29 28 27 26 24 24
15 15 16 17 17 17 18 19 22 23 24 26 28 27 24 25 28 29 27 22 21 22 21 19 20 21 21 20 20 20 17 15 18 22 23 23 24 22 22 24 26 28 28 29 27 25 22 21 20 21 23 25 25 26 27 29 30 31 32 32 33 33 34 33 33 33 33 34 34 34 34 33 33 33 32 32 32 31 30 31 31 31 30 28 26
14 14 15 16 16 16 17 17 17 17 17 16 16 15 14 13 15 19 19 19 21 22 19 18 20 21 19 18 17 17 16 15 17 19 18 18 17 16 15 16 19 24 26 28 29 28 27 27 28 28 28 27 27 27 28 30 30 30 32 33 35 36 37 37 36 35 35 36 36 37 37 37 36 36 36 35 33 33 32 33 33 33 33 33 30
15 15 15 16 16 16 16 16 15 15 13 11 11 11 10 10 11 13 15 18 22 22 17 16 18 18 17 17 15 13 13 13 15 15 15 15 15 15 16 16 17 20 22 25 27 28 30 30 30 31 30 29 28 29 29 31 31 31 32 34 36 38 38 38 38 37 36 37 38 39 40 40 39 39 39 38 36 34 34 34 35 35 35 35 34
17 18 18 18 17 17 17 16 16 15 14 12 12 11 11 11 11 12 13 14 16 17 16 15 15 15 15 15 13 11 12 13 15 15 16 17 18 19 19 19 20 21 23 24 26 27 28 28 29 30 31 30 30 29 30 32 33 34 35 35 37 39 39 39 39 39 40 40 40 40 40 41 41 41 41 40 39 38 37 36 36 36 36 36 36
20 21 21 20 19 18 17 17 16 16 15 14 13 13 12 12 12 12 13 13 14 15 15 15 15 14 13 12 12 13 14 15 17 18 19 20 22 23 23 23 24 25 25 26 27 27 27 28 29 30 30 30 30 31 32 33 34 34 34 35 38 40 40 41 41 41 42 42 41 41 41 41 41 41 41 42 42 41 41 40 39 39 38 37 37
21 22 22 22 21 20 19 19 18 17 16 15 14 14 14 14 15 15 15 15 16 16 16 16 16 15 15 14 15 16 17 19 21 22 23 24 25 26 26 27 27 27 27 28 28 28 28 28 28 28 29 29 30 32 33 34 34 34 34 37 40 40 40 40 41 42 43 43 42 42 42 42 42 42 41 42 43 44 44 43 43 42 42 40 39
22 23 22 21 21 21 21 20 20 19 18 17 16 16 16 17 17 18 18 18 19 19 19 19 19 19 19 19 19 19 20 21 22 23 23 24 25 25 26 27 27 28 28 28 28 28 28 28 27 27 28 28 29 31 32 33 34 35 36 38 39 39 39 40 40 42 43 43 43 43 42 42 42 42 42 42 42 43 44 44 43 44 44 44 42
25 25 23 22 22 22 22 22 21 20 20 19 18 18 18 18 18 20 21 22 22 23 23 23 23 22 22 21 21 21 22 22 23 23 23 23 24 25 26 27 28 27 27 27 27 27 27 27 27 28 28 28 29 31 32 33 34 35 36 37 38 39 40 41 41 43 43 43 43 42 42 42 42 42 43 43 43 43 44 44 44 44 45 45 44
29 28 25 24 24 24 24 24 24 22 21 20 20 20 20 20 20 21 22 23 24 24 24 24 23 23 23 23 23 23 23 24 24 24 24 24 25 25 26 27 27 26 26 26 26 26 26 26 28 28 29 30 31 32 33 34 35 36 37 38 39 40 41 42 43 43 44 43 43 42 42 42 43 43 43 44 44 44 45 45 46 46 46 45 45
31 30 27 26 26 26 25 25 24 23 22 21 21 21 22 21 21 22 23 23 23 23 23 23 23 23 23 23 23 24 24 25 25 25 25 26 27 27 28 28 28 28 28 27 27 27 28 28 29 29 30 32 33 34 35 36 37 37 38 39 41 41 42 42 43 43 42 42 42 42 42 42 43 44 44 44 44 45 45 45 45 46 46 46 46
27 27 27 26 25 25 25 25 24 23 23 23 23 23 23 23 23 24 24 24 25 24 24 24 24 23 23 22 23 23 24 24 25 26 27 28 29 29 30 30 30 31 31 30 30 30 30 30 31 31 32 33 34 35 36 37 38 38 39 40 41 41 41 42 42 42 42 42 43 43 43 43 44 45 45 45 44 44 43 43 43 44 45 46 46
27 27 27 27 27 27 25 24 24 24 24 24 25 25 26 25 25 26 27 27 26 26 26 26 25 24 23 23 23 23 24 24 25 26 28 29 30 31 31 31 31 32 32 32 32 32 32 32 33 33 34 34 35 36 37 37 38 39 39 40 39 40 40 41 41 42 43 43 43 43 43 43 44 44 44 44 44 43 43 43 43 44 46 46 47
30 30 31 31 31 29 27 25 24 25 25 25 25 27 29 29 29 29 29 28 27 26 26 26 26 25 25 26 26 26 26 27 27 28 29 30 31 31 31 32 32 32 32 33 33 34 34 34 35 35 35 35 36 37 37 38 39 39 38 38 38 39 40 40 41 42 42 43 43 43 43 43 43 43 43 43 43 44 44 45 45 46 46 46 47
32 33 34 34 32 29 27 26 26 27 28 27 27 28 30 32 33 32 31 30 29 28 27 27 27 27 27 28 28 29 29 30 30 31 31 32 32 31 31 31 31 31 32 33 35 36 37 37 37 38 38 38 39 39 39 39 38 38 38 38 38 38 39 39 40 40 41 42 42 43 43 43 44 44 44 44 44 44 45 45 45 45 45 46 46
35 35 36 36 34 31 30 30 30 30 30 30 31 30 31 33 34 34 33 33 32 31 31 30 29 29 29 29 30 31 31 31 31 32 32 33 33 32 31 31 31 32 33 34 35 37 38 39 39 40 40 40 40 40 40 39 38 38 38 38 38 38 38 38 38 39 40 41 42 42 42 42 43 43 43 44 44 44 44 45 45 45 46 47 47
37 37 37 38 37 35 34 33 33 33 33 34 35 34 35 35 36 36 36 36 35 34 34 33 32 31 30 30 31 31 31 31 32 32 32 32 32 31 31 31 32 33 35 36 37 38 39 40 40 40 40 40 40 40 40 39 38 38 38 38 38 38 38 38 39 40 40 41 41 41 41 41 42 43 43 44 44 45 46 46 47 47 48 49 50
39 39 39 40 40 40 38 36 36 36 36 37 37 37 37 37 37 37 37 37 36 36 35 35 34 32 30 30 30 30 29 28 28 28 28 28 29 30 30 32 33 34 35 36 37 38 39 40 40 40 40 40 39 39 39 38 37 37 36 36 37 37 37 38 39 40 40 41 41 41 42 42 43 43 44 45 46 47 48 49 50 50 51 52 52
43 42 41 41 41 42 42 41 39 39 38 39 39 39 39 39 39 39 38 37 37 36 36 35 32 29 28 28 28 28 27 24 22 22 24 26 28 30 31 32 32 32 33 33 34 35 37 38 38 39 39 38 38 37 37 36 36 35 34 34 35 36 37 38 39 40 40 41 41 41 42 43 44 46 47 48 49 49 50 51 52 53 53 53 53
47 46 45 44 42 42 42 42 42 41 40 40 40 40 40 39 38 38 37 37 36 35 34 32 29 27 28 28 27 27 28 27 27 27 28 29 30 30 29 30 30 29 30 31 33 34 35 36 37 37 36 35 34 34 34 33 32 31 31 32 33 35 36 37 38 39 39 40 42 43 44 45 46 47 48 49 50 50 51 51 52 52 52 52 52
49 49 48 47 45 43 42 41 42 43 43 42 41 41 41 40 38 37 37 37 36 34 32 30 29 28 28 27 27 26 27 29 31 31 30 30 30 29 28 28 28 29 31 33 34 35 35 35 34 33 32 31 31 30 29 28 28 28 29 31 32 33 35 36 37 38 39 41 42 44 44 45 46 47 48 49 49 48 47 47 47 46 46 46 46
46 48 48 48 47 45 43 41 40 40 41 42 42 42 41 40 39 40 40 37 34 31 30 29 28 27 26 26 26 25 26 27 29 29 28 29 30 30 29 29 29 30 32 33 33 32 32 31 29 28 28 27 26 26 25 25 26 27 29 30 31 32 34 35 37 38 40 41 42 43 43 44 45 45 46 46 45 43 41 39 39 39 39 39 40
44 45 46 46 47 46 45 43 40 38 38 39 41 41 40 39 39 40 39 37 34 31 30 29 27 26 25 25 25 25 25 26 27 27 26 27 29 29 29 29 29 30 30 30 28 27 26 25 24 24 24 24 23 23 24 25 26 26 27 28 29 32 33 35 37 38 39 40 40 40 41 42 43 42 41 40 38 35 33 31 31 32 32 32 31
45 44 44 44 44 43 43 42 42 41 39 39 39 39 38 38 39 39 38 36 34 33 32 30 27 26 26 27 27 27 27 27 26 26 26 27 27 27 27 26 26 25 25 24 22 21 21 20 20 21 21 21 22 23 23 24 24 24 25 26 28 30 32 34 35 36 37 38 37 37 38 39 39 37 35 32 30 27 25 24 23 24 24 23 23
46 45 44 44 44 43 42 41 41 41 40 39 39 38 38 38 38 37 36 35 34 34 32 30 28 28 29 30 31 31 30 28 26 26 26 26 25 24 23 22 21 20 20 19 17 17 17 18 19 20 20 21 21 22 21 21 22 23 25 26 27 29 30 32 33 33 34 34 35 35 35 34 33 30 27 25 22 20 19 18 18 18 19 20 21
45 44 44 43 43 43 43 43 43 42 41 39 39 38 38 37 36 35 34 33 33 33 32 31 31 31 32 33 32 31 29 27 26 25 25 24 23 23 22 21 19 18 17 16 15 16 18 19 19 19 19 19 19 19 19 20 21 22 24 25 26 27 28 30 30 31 31 31 32 32 31 29 27 24 21 18 17 17 17 16 16 17 19 21 22
44 44 43 43 42 42 42 43 44 45 44 42 40 39 38 37 36 35 34 34 34 34 33 32 32 32 33 32 30 28 27 25 24 23 23 23 23 23 22 20 18 16 16 16 16 17 18 18 18 18 17 16 16 16 18 19 20 21 22 23 24 26 27 28 28 29 30 30 30 29 28 25 22 20 18 16 17 17 17 17 17 18 20 22 22
45 45 44 43 42 41 41 41 43 44 45 45 44 42 40 39 38 37 37 37 37 36 34 32 31 31 30 29 27 26 24 22 22 22 23 22 20 19 18 16 16 16 17 17 17 17 17 17 16 16 14 14 15 16 17 17 18 19 20 22 24 26 26 28 29 30 31 30 29 28 26 22 19 17 17 17 18 18 17 17 18 19 20 22 23
45 45 44 44 43 42 41 40 41 41 42 44 44 44 43 41 39 38 37 37 37 36 33 30 28 28 27 26 25 23 22 21 21 22 20 18 15 14 14 14 16 17 18 17 16 16 16 15 14 13 13 13 14 14 15 15 16 17 20 22 24 25 27 29 30 31 31 30 28 26 24 20 18 16 17 18 18 17 17 18 18 18 19 22 24
43 43 43 42 42 42 41 41 40 39 39 40 40 41 40 38 36 35 35 34 34 33 30 27 26 26 26 24 23 22 21 21 20 18 15 14 13 12 13 15 17 17 16 15 15 15 13 12 12 12 12 13 12 12 13 14 15 18 20 22 23 25 27 29 30 30 30 29 26 24 21 19 17 16 16 17 17 17 18 19 19 17 17 20 22
39 39 39 40 39 39 39 39 39 38 36 35 35 35 35 33 31 31 31 31 30 28 26 25 25 25 24 22 21 20 20 20 17 14 13 13 13 14 15 17 17 16 15 14 14 12 11 11 12 12 11 11 11 11 12 13 16 18 20 21 22 24 26 29 29 29 28 27 24 22 19 18 16 15 15 16 16 18 19 19 18 16 17 18 21
31 33 35 35 36 36 35 36 36 36 34 32 31 32 32 30 29 29 29 28 27 25 24 25 25 24 22 21 20 17 16 16 15 14 14 14 15 16 17 17 16 14 14 13 12 10 10 11 11 10 9 10 10 11 12 14 16 18 20 21 22 23 26 28 29 28 27 26 23 20 18 17 16 15 14 15 16 19 19 17 16 16 16 18 20
21 24 27 30 32 32 32 32 32 33 32 30 29 30 30 30 29 28 27 26 25 24 24 23 23 21 20 19 17 16 15 15 15 15 15 16 16 16 16 15 14 13 12 11 10 10 10 10 9 8 8 9 11 12 14 15 16 17 19 21 22 23 25 27 28 28 26 25 23 20 17 16 16 15 14 15 17 19 19 17 16 15 15 17 19
14 16 20 23 26 27 28 28 28 28 28 29 29 29 30 29 28 27 27 26 24 23 22 21 19 19 19 19 19 19 17 15 15 16 15 15 15 15 14 13 11 10 10 10 10 10 10 9 7 7 8 10 12 13 14 15 16 17 19 20 21 22 24 26 28 27 26 24 22 19 17 15 15 15 15 16 17 19 19 18 16 14 14 15 17
8 11 13 16 19 21 21 21 21 22 23 25 26 26 26 26 26 26 25 24 22 22 21 20 20 21 21 20 19 18 16 15 15 15 14 13 13 12 11 10 9 9 10 10 11 10 8 6 6 7 9 11 13 14 14 15 16 17 19 21 22 22 23 25 27 28 26 24 22 20 17 15 14 14 15 17 18 19 19 18 16 14 12 13 14
9 9 10 12 15 16 16 15 16 17 19 21 23 23 22 21 21 21 21 20 20 19 18 18 19 18 17 16 16 17 16 15 14 13 11 11 10 9 8 8 8 10 11 10 9 7 5 5 7 8 10 11 13 14 15 16 17 19 20 21 22 22 22 24 27 28 27 26 24 21 19 16 15 14 15 16 18 19 18 17 16 14 12 12 13
15 12 11 12 13 14 15 15 15 16 17 18 20 21 20 19 18 18 17 18 19 19 19 18 17 16 16 17 17 17 15 13 12 11 10 10 9 8 8 8 9 10 9 8 6 5 5 6 7 8 10 11 13 15 16 17 19 20 21 22 22 23 23 23 25 28 28 28 26 25 22 19 16 15 16 16 18 18 18 16 15 13 12 12 14
22 19 17 16 15 16 16 16 15 15 15 15 16 17 17 17 18 18 20 22 22 21 19 18 17 17 16 16 15 14 12 11 11 11 10 9 9 9 9 9 9 8 6 4 3 4 6 7 8 9 10 11 13 15 16 17 19 20 21 22 23 23 23 23 25 27 29 29 28 26 25 22 19 17 16 17 17 18 18 16 14 13 13 13 15
20 20 20 19 19 18 17 16 15 14 14 14 15 17 18 20 22 24 25 24 22 19 17 16 15 14 14 13 12 12 11 11 12 11 11 10 10 10 9 8 7 5 3 2 2 4 6 7 8 9 10 11 13 14 16 17 19 20 21 21 22 23 23 23 24 26 28 29 29 28 27 25 22 19 17 17 17 17 17 15 14 13 13 13 15
20 18 17 17 16 16 16 17 17 18 18 20 21 23 23 24 24 23 22 20 18 17 15 14 13 13 13 13 12 12 12 12 12 12 11 11 10 9 7 6 5 3 2 2 3 5 6 8 9 9 10 11 12 13 15 16 18 19 20 21 22 23 23 24 24 24 26 28 28 28 28 28 26 22 19 17 17 18 17 15 14 14 13 13 13
27 24 22 21 20 21 21 22 23 23 23 23 22 21 20 20 19 18 17 16 15 14 13 13 13 13 13 13 12 12 12 12 11 10 9 8 7 6 5 4 3 3 2 2 4 6 7 9 9 10 11 11 12 13 14 15 17 18 19 19 20 22 23 24 25 25 25 26 27 28 28 28 28 26 23 20 18 18 17 16 14 14 13 13 12
26 25 24 23 23 23 23 22 21 21 20 19 18 17 16 15 15 15 14 13 13 12 12 13 13 13 13 12 12 11 11 10 9 8 6 5 4 4 4 3 3 3 3 4 5 7 8 9 10 11 12 13 13 13 14 15 16 17 18 19 19 21 23 24 25 25 25 25 26 26 28 28 28 27 25 23 20 18 17 16 14 13 12 12 11
21 21 21 20 20 20 19 18 17 17 16 16 15 14 14 13 13 13 13 13 13 13 13 13 13 12 12 11 11 10 9 8 6 5 4 4 3 3 3 4 4 5 5 5 6 8 9 10 12 13 13 14 14 14 14 15 15 16 17 18 19 20 22 23 24 25 25 25 25 26 27 28 28 27 26 24 22 20 18 16 15 14 12 10 9
Wind_Direction
269 270 272 270 276 269 234 220 226 237 236 215 197 188 186 195 201 197 189 182 175 170 166 164 165 168 170 174 177 179 182 184 187 190 201 214 210 238 261 274 287 299 312 308 307 313 313 312 312 311 310 312 313 316 319 317 312 309 311 315 320 322 321 322 322 318 309 299 294 291 289 287 287 288 288 289 291 291 290 288 285 281 279 278 277
273 275 279 279 281 272 243 222 224 233 235 225 211 199 192 194 203 207 203 196 191 190 192 192 194 200 207 213 219 229 240 250 263 273 278 283 284 287 287 286 285 285 287 288 290 292 293 295 297 300 301 302 303 304 303 301 298 296 296 297 300 302 302 301 301 303 304 301 298 295 292 290 287 287 285 284 284 285 286 286 285 283 281 278 277
272 271 274 276 272 267 251 228 224 230 234 231 221 208 199 196 203 210 210 207 204 202 206 208 210 216 223 232 238 248 258 266 276 282 287 292 294 294 293 290 287 285 283 282 284 285 286 289 290 292 293 294 295 295 293 292 290 290 290 290 290 291 291 291 289 286 286 289 291 290 291 292 291 291 290 288 285 283 282 282 282 282 281 279 278
268 270 272 273 270 268 254 235 228 230 233 231 221 211 203 200 205 208 207 206 204 205 212 215 217 220 225 233 240 243 249 257 265 273 278 282 286 289 291 291 288 286 283 280 279 280 282 285 287 288 289 289 290 289 288 286 286 286 287 287 287 288 289 290 289 287 285 285 286 286 285 286 287 289 291 291 290 287 284 282 280 279 279 279 278
257 263 269 270 270 267 255 240 232 230 235 234 222 214 209 205 209 212 209 207 206 206 209 212 212 213 214 220 233 239 242 250 259 267 272 274 278 279 280 282 283 283 282 280 277 278 279 281 283 285 285 286 289 290 290 288 286 284 283 284 285 288 290 292 291 290 288 286 287 287 286 286 285 286 287 288 289 290 289 287 283 279 276 276 276
247 251 257 259 260 261 254 245 237 234 237 235 223 217 213 210 211 214 213 213 216 216 216 217 216 215 212 208 216 228 239 249 253 257 262 266 272 275 274 273 274 275 276 275 273 273 275 278 279 279 279 281 286 290 292 292 291 290 289 289 289 290 291 292 291 290 288 287 288 289 289 288 287 287 288 288 288 286 285 286 286 284 280 277 275
240 239 242 245 246 248 248 248 246 241 239 237 230 223 220 218 218 218 215 214 219 221 224 232 239 243 235 221 217 220 230 245 249 250 254 256 260 265 265 265 266 266 266 266 266 267 268 271 274 274 276 279 282 286 289 291 293 294 295 294 293 293 293 292 292 291 290 289 290 291 291 289 288 287 288 289 290 290 286 282 280 281 283 283 280
233 231 236 242 244 243 242 246 248 244 241 244 243 236 233 232 229 225 221 220 223 224 226 237 249 253 247 239 235 229 226 239 251 255 256 256 256 257 257 258 259 260 259 258 258 260 260 263 268 272 274 276 279 282 285 289 291 292 293 293 293 293 294 295 296 296 295 294 294 294 292 290 288 287 287 288 289 291 291 290 286 282 281 282 282
234 231 232 238 243 242 240 242 245 246 247 253 254 250 247 244 237 231 229 228 232 233 230 234 245 249 252 255 257 252 239 239 253 259 259 259 258 258 258 257 256 255 253 250 248 248 249 255 265 270 273 275 277 279 281 285 288 290 292 291 291 292 293 295 296 298 298 298 297 297 295 292 289 288 287 287 288 287 288 289 290 290 287 283 283
232 231 229 230 235 239 239 239 243 247 249 253 253 251 252 252 244 238 236 235 236 235 233 237 246 251 256 258 259 259 254 248 252 255 256 256 258 260 262 259 253 248 246 245 246 247 249 257 266 271 275 276 276 277 280 283 285 288 289 290 291 291 291 292 293 295 297 298 298 296 294 292 291 290 289 289 289 289 287 286 287 288 289 287 285
233 230 229 229 232 235 236 235 237 243 244 241 239 239 244 247 239 232 231 230 229 228 228 239 248 251 252 252 253 258 260 254 250 250 252 254 258 262 265 264 258 252 250 251 255 257 258 262 267 270 273 275 275 278 281 283 284 286 287 289 289 290 290 291 291 292 294 297 297 295 292 290 290 290 290 289 289 288 287 286 286 286 287 287 285
241 235 229 228 229 230 231 231 232 236 237 229 221 223 227 226 222 219 223 231 235 232 228 236 246 248 247 249 251 251 246 240 238 241 246 253 259 262 264 265 264 262 262 262 263 263 263 265 268 270 273 275 278 280 281 283 285 285 286 287 288 288 291 292 292 292 293 294 295 293 291 290 289 288 288 287 286 285 284 284 285 285 285 286 285
250 245 236 230 228 227 229 229 227 225 223 215 209 210 214 217 221 222 226 236 244 244 241 241 243 242 242 244 245 240 237 238 243 249 256 261 264 266 266 266 266 267 268 268 268 268 268 270 272 274 276 278 280 281 281 283 285 286 288 289 289 291 293 293 293 292 292 293 293 292 291 289 288 288 286 285 283 282 281 281 281 282 283 284 284
252 249 243 235 229 226 226 226 223 218 212 209 210 216 222 226 229 231 233 238 243 245 246 245 243 243 245 246 246 246 249 253 258 263 267 268 269 270 270 272 273 274 273 273 274 274 274 275 276 278 279 279 280 280 281 283 286 290 291 290 290 292 293 293 293 292 292 292 292 292 290 289 287 286 285 284 282 281 280 280 280 280 281 281 282
250 249 245 239 230 225 222 219 215 210 207 212 221 228 233 234 235 236 236 236 236 237 238 237 238 242 245 247 249 252 255 259 262 265 267 268 270 271 272 273 274 274 273 274 275 276 278 279 280 281 281 279 278 279 279 280 283 285 286 286 289 292 293 292 291 291 291 292 291 290 289 287 286 285 284 283 282 282 281 281 281 281 281 281 282
249 247 243 237 230 225 221 216 212 211 214 222 230 233 234 234 234 233 232 231 229 228 228 230 234 238 242 245 247 250 253 256 259 262 264 267 269 270 271 271 271 272 272 273 275 277 279 281 282 283 282 282 281 281 280 280 280 281 283 286 289 290 290 290 289 289 290 290 290 289 287 286 286 286 285 284 283 282 282 282 282 282 281 282 282
244 240 235 233 230 228 225 222 219 221 226 231 234 233 231 229 228 227 227 226 226 226 228 231 234 237 239 241 243 245 250 254 258 262 265 266 267 268 270 271 272 273 274 274 275 277 278 280 281 283 284 284 284 284 284 283 283 284 285 286 288 288 289 290 290 290 290 289 288 287 286 286 286 285 285 285 285 284 284 283 283 283 282 282 282
236 233 231 232 234 232 231 230 231 232 233 232 231 228 226 226 226 226 225 225 225 226 228 231 233 237 239 243 247 251 255 260 263 266 267 268 268 268 270 271 273 274 275 275 276 276 277 279 280 281 283 284 284 284 285 286 286 288 289 289 290 290 290 290 290 290 290 290 290 289 289 288 287 287 287 287 287 287 287 286 286 285 284 283 283
234 233 231 233 237 238 236 234 235 233 231 229 227 226 226 225 225 225 225 226 227 229 231 234 238 243 247 252 256 260 264 267 269 269 268 268 269 269 270 272 274 275 276 277 278 279 279 279 279 279 280 280 281 283 284 286 288 289 290 291 291 291 290 290 290 289 289 288 288 289 289 288 287 287 287 287 287 287 287 286 286 285 284 284 284
242 243 238 234 235 239 240 239 238 235 231 228 225 226 228 228 227 227 228 229 230 233 236 239 242 246 250 255 259 263 267 269 271 272 271 270 270 270 271 273 274 276 278 279 280 280 280 280 279 279 279 279 280 282 284 286 287 288 289 289 290 290 290 290 290 289 288 286 285 285 285 284 284 284 284 284 285 285 285 284 284 284 284 284 284
252 254 250 242 239 240 242 243 244 243 241 237 233 231 231 230 229 231 232 234 235 237 240 242 246 249 252 256 260 264 268 270 272 272 272 271 270 271 273 274 276 277 279 280 281 281 280 280 279 279 279 280 281 282 284 285 286 287 289 289 290 290 290 289 288 288 287 286 285 285 284 284 284 284 284 284 284 284 284 284 285 286 286 286 285
255 255 252 248 247 248 248 248 249 252 253 252 248 242 237 233 233 235 237 238 239 241 243 246 249 252 256 259 263 266 269 270 271 271 270 270 270 270 272 274 276 277 278 278 279 279 279 279 279 279 280 281 283 284 285 286 287 288 288 288 289 289 288 287 287 286 286 286 286 285 285 285 285 285 286 286 285 284 284 285 286 287 287 287 286
255 255 252 247 245 245 246 248 251 255 259 261 259 253 246 240 238 239 242 245 245 247 249 251 253 255 258 262 264 266 268 268 268 269 268 268 268 268 270 272 274 275 276 275 276 276 276 277 278 279 280 282 283 285 286 287 288 287 287 287 287 287 287 287 287 286 286 285 285 285 286 286 287 287 287 286 286 285 285 286 286 286 286 285 286
253 253 253 252 248 245 245 247 248 249 251 253 253 253 251 248 245 244 246 249 251 253 256 257 258 260 262 264 266 267 267 267 267 266 265 265 266 267 268 270 271 272 273 273 273 274 275 275 276 277 278 279 281 283 284 285 285 285 285 285 286 287 287 287 287 287 287 286 286 287 287 287 287 287 287 287 287 286 286 286 286 286 285 285 285
251 250 249 250 249 246 247 249 251 251 251 249 247 247 247 247 247 247 248 250 252 255 258 260 262 264 265 266 266 265 265 265 264 263 262 262 263 264 265 267 269 270 271 271 272 273 273 274 275 276 277 279 280 281 282 282 282 282 283 284 285 286 287 288 288 289 289 289 289 289 290 289 289 289 289 290 290 289 289 288 287 287 286 285 285
246 246 245 245 246 246 246 247 252 256 257 256 254 253 251 250 249 249 251 253 255 259 263 265 266 266 265 263 261 261 264 266 262 260 261 261 261 264 267 269 271 271 272 272 272 273 273 274 275 277 278 279 280 281 282 281 280 281 282 283 285 287 288 290 291 291 291 291 292 292 293 293 293 293 294 293 293 293 292 291 290 289 288 287 286
241 241 240 240 241 243 244 244 245 249 253 256 258 260 260 259 257 256 257 258 260 264 268 269 269 267 262 258 255 256 261 263 257 256 262 265 266 269 271 272 272 273 274 275 275 276 276 276 277 277 278 279 280 280 279 279 279 280 282 284 286 288 290 291 292 292 293 294 294 295 296 297 297 297 297 296 295 295 295 294 293 292 291 289 288
243 242 241 239 238 238 239 240 242 245 247 249 252 257 260 261 259 258 259 261 263 266 268 269 268 262 256 255 255 256 257 258 259 262 267 269 271 273 272 271 272 274 275 277 277 278 277 277 277 277 277 277 277 276 277 278 280 282 285 287 289 290 291 293 293 295 296 298 298 299 299 299 299 298 297 297 297 296 295 294 293 292 291 290 288
245 245 245 244 243 242 240 240 242 245 246 247 248 252 256 258 259 262 265 266 268 270 270 268 263 257 255 257 261 263 264 264 265 269 270 270 270 272 271 271 272 274 276 278 278 278 277 276 276 275 274 274 275 277 279 281 284 287 289 291 292 293 295 296 297 299 300 300 300 300 299 298 297 297 296 296 295 295 294 292 291 290 289 288 288
247 246 246 246 247 247 246 245 244 244 245 247 248 248 249 252 257 263 268 270 271 271 270 267 262 259 260 262 264 268 272 272 271 271 271 269 268 269 270 272 275 277 278 279 279 277 275 274 273 272 272 274 277 280 283 286 288 290 292 294 296 297 299 300 301 301 301 299 299 298 298 297 297 296 296 296 295 294 292 291 290 289 288 288 289
246 246 245 245 246 248 249 249 249 248 247 248 249 249 249 251 255 261 265 267 269 270 270 268 267 267 269 270 271 274 276 275 272 271 270 269 269 270 272 276 278 280 279 277 275 272 269 268 269 272 275 278 280 283 286 288 290 292 294 298 301 302 302 302 301 300 299 299 299 299 298 298 297 297 297 296 295 294 293 293 292 291 291 294 296
246 245 244 243 242 243 245 246 247 248 248 248 249 249 250 252 255 257 261 263 266 268 269 268 268 271 273 275 277 279 279 276 272 269 268 268 270 272 274 277 279 277 273 269 266 264 264 267 271 275 278 280 283 285 287 289 292 296 301 304 303 302 301 301 301 302 302 302 302 301 300 299 299 299 299 298 298 298 298 298 297 298 301 304 306
249 247 246 244 242 241 241 241 242 243 244 245 246 248 250 251 251 252 255 258 262 266 267 265 266 270 273 275 278 280 280 276 270 268 268 269 269 269 271 275 276 270 263 260 260 261 266 271 274 276 279 281 284 286 289 294 300 304 306 305 303 303 304 305 306 306 305 305 304 303 302 302 303 302 302 302 304 305 305 305 306 307 309 311 310
248 247 246 245 244 243 241 240 240 240 241 242 244 246 249 251 251 251 253 255 258 261 262 261 264 269 272 273 276 277 276 271 267 266 268 269 266 264 265 269 270 262 254 254 261 267 271 273 275 278 280 281 284 289 296 303 307 307 305 305 306 309 311 311 310 309 308 308 308 308 308 308 307 306 306 309 312 313 310 309 308 308 310 312 313
244 244 244 244 244 244 243 242 241 241 241 242 243 245 248 250 251 252 254 256 259 261 260 260 264 268 269 269 271 271 269 265 263 265 267 267 265 263 262 260 258 253 253 259 267 271 272 273 275 277 279 282 290 299 304 306 306 305 307 311 315 317 316 315 315 315 316 316 316 316 316 314 312 311 313 318 319 317 313 311 308 308 312 317 321
242 241 241 241 241 241 242 242 242 242 242 242 243 245 247 250 252 253 253 254 257 260 261 262 264 265 264 264 265 264 262 260 261 265 268 265 260 257 251 245 243 249 258 265 268 268 270 272 273 276 281 291 299 303 304 305 306 311 317 322 325 324 323 323 324 325 324 324 322 321 320 318 316 315 318 319 319 318 317 315 310 310 316 324 328
242 241 241 240 239 238 239 240 241 241 240 240 242 244 246 249 251 252 251 252 255 257 260 261 261 259 259 260 259 257 255 254 258 265 266 255 240 232 233 237 247 257 263 264 264 265 267 270 272 280 290 298 300 301 304 309 316 324 330 332 331 330 330 331 331 330 329 327 326 324 322 318 316 317 317 317 319 321 321 316 310 310 317 324 327
241 241 240 239 238 238 237 238 240 240 239 238 239 241 244 247 248 247 247 249 252 254 256 255 253 253 254 253 252 251 249 247 250 254 249 233 220 224 238 251 259 261 260 260 262 264 267 271 279 288 294 296 299 305 313 322 332 337 338 338 337 336 336 336 335 333 331 329 328 325 321 317 316 315 314 316 320 323 319 312 308 310 317 321 320
240 239 238 237 237 236 236 236 237 238 238 237 235 236 240 242 241 241 244 246 247 249 249 246 245 247 247 247 247 246 241 237 237 235 226 221 227 241 252 256 256 255 255 258 261 265 271 278 283 287 290 295 305 317 328 339 344 343 341 342 343 341 339 338 337 336 333 332 330 327 321 316 315 313 312 315 320 319 314 309 308 312 318 321 320
240 237 235 233 232 233 233 233 234 235 235 234 233 233 235 236 237 240 243 243 244 245 242 238 238 241 242 242 240 231 222 223 227 228 228 232 242 249 250 247 246 248 253 256 259 264 273 278 279 283 293 306 319 333 345 351 349 346 345 347 347 344 342 342 341 340 338 336 334 330 323 316 313 312 312 312 312 313 313 313 313 315 321 326 327
236 232 229 226 226 227 228 229 231 231 231 231 229 228 229 231 234 238 239 240 241 239 234 234 238 239 234 226 216 207 209 220 228 232 237 240 241 241 239 238 242 247 251 254 260 267 271 272 278 291 310 325 336 347 354 354 350 349 352 352 349 347 347 346 344 344 344 341 338 334 326 318 314 313 312 309 309 312 314 313 313 315 322 331 335
224 219 217 217 218 220 223 225 227 228 227 226 225 225 226 227 229 233 235 235 234 233 233 234 230 219 211 206 200 202 214 229 233 233 234 233 231 232 235 237 242 247 252 258 264 266 266 272 290 314 333 342 348 353 355 353 351 355 358 356 352 351 351 350 348 349 350 348 344 339 330 322 316 313 310 309 311 314 313 310 309 315 325 334 339
188 191 198 204 208 212 216 218 219 219 219 218 219 222 223 221 222 226 228 227 228 232 234 224 205 195 196 199 200 207 221 229 226 223 222 223 227 233 235 236 241 250 257 260 260 259 266 290 317 334 345 350 351 353 353 352 355 1 4 360 355 353 353 353 353 353 355 356 353 346 336 326 317 312 310 310 313 315 313 309 307 310 320 330 333
132 150 166 179 186 192 196 198 199 202 204 206 209 214 214 209 209 214 220 223 224 222 213 197 187 187 193 199 204 212 218 215 210 212 218 225 231 232 229 232 242 249 252 253 255 264 290 320 332 341 349 352 352 352 353 353 358 5 6 2 358 356 355 356 356 356 358 0 1 357 348 335 325 318 316 314 315 318 317 311 304 304 311 319 322
101 115 133 149 160 168 175 177 180 185 188 190 195 200 202 201 204 210 214 210 202 190 179 176 182 191 197 202 207 208 204 199 203 213 220 223 223 219 219 226 234 238 242 249 264 292 316 327 332 342 349 352 352 353 353 354 360 5 5 1 359 358 357 358 358 359 0 2 4 4 359 349 337 330 326 323 322 324 324 317 306 300 301 306 313
89 97 109 123 135 147 155 158 160 164 169 175 183 191 196 200 201 197 188 180 174 172 174 179 185 188 191 194 196 194 191 195 205 210 212 210 207 205 208 215 221 227 236 255 290 313 318 321 328 339 347 351 354 353 352 354 1 5 3 359 358 359 359 359 360 1 2 3 5 7 6 1 352 342 336 334 332 330 328 322 313 303 298 303 313
93 98 105 113 120 128 135 141 148 156 165 172 177 179 177 174 170 167 164 163 165 169 172 172 172 174 177 180 182 184 188 194 199 200 201 199 194 193 199 206 212 220 233 266 309 316 315 316 325 336 344 350 352 351 350 354 2 4 1 358 357 358 0 1 1 1 2 3 5 7 9 8 3 355 347 344 343 339 333 325 315 307 302 305 313
87 94 104 114 122 129 136 143 149 153 155 155 154 153 152 151 151 151 152 154 155 156 156 157 161 166 171 177 180 182 186 190 193 194 193 187 181 183 192 199 206 221 246 284 313 316 315 317 325 332 338 344 349 349 350 354 360 1 359 358 357 357 360 3 3 3 2 2 4 7 9 10 9 5 360 354 350 347 342 334 322 311 303 303 312
77 82 90 100 109 116 122 127 130 131 131 132 132 134 134 135 136 137 139 140 142 146 151 157 163 168 173 177 179 179 184 189 191 187 182 175 173 181 195 204 222 251 273 298 312 314 316 320 324 327 331 337 343 346 348 352 357 359 357 357 356 357 360 2 4 4 3 2 2 6 9 10 10 9 7 4 358 350 345 341 334 321 308 303 309
75 77 82 88 94 98 103 106 108 108 109 111 114 118 121 125 128 131 135 141 149 156 160 163 167 171 174 175 174 177 184 188 183 175 169 167 174 194 214 235 256 269 284 302 310 313 317 320 322 324 327 331 337 342 345 349 354 355 355 355 356 358 0 2 3 4 5 3 2 5 8 10 10 10 10 9 5 356 347 342 338 330 319 310 307
75 75 77 81 85 89 92 95 97 99 100 104 109 115 122 129 136 143 150 157 163 166 167 167 169 169 168 166 168 174 179 179 172 167 168 173 189 219 244 260 267 273 287 300 307 311 316 318 320 323 326 328 331 336 340 344 349 351 352 354 356 359 1 1 1 3 5 5 4 4 7 9 10 10 10 11 10 4 355 347 340 334 329 321 313
Height
3103 3105 3104 3105 3108 3110 3110 3110 3112 3116 3120 3120 3120 3121 3122 3123 3125 3125 3125 3126 3126 3127 3128 3128 3130 3131 3132 3133 3133 3134 3134 3134 3134 3134 3134 3135 3135 3135 3135 3135 3136 3136 3136 3136 3136 3136 3135 3135 3135 3135 3134 3134 3134 3133 3133 3133 3132 3132 3132 3132 3131 3131 3131 3130 3129 3128 3127 3126 3126 3126 3125 3124 3124 3124 3123 3123 3122 3121 3121 3121 3121 3120 3120 3119 3119
3102 3103 3103 3105 3107 3107 3107 3108 3110 3114 3118 3118 3118 3119 3120 3122 3124 3124 3125 3125 3125 3126 3127 3128 3129 3130 3131 3132 3133 3133 3134 3134 3134 3135 3135 3135 3135 3135 3135 3135 3135 3135 3135 3135 3135 3135 3135 3134 3134 3134 3133 3133 3133 3132 3132 3131 3131 3131 3130 3130 3130 3130 3129 3129 3129 3128 3127 3125 3125 3124 3124 3123 3122 3122 3122 3121 3120 3120 3119 3118 3118 3118 3117 3117 3116
3101 3102 3102 3103 3104 3104 3105 3106 3108 3112 3115 3116 3117 3118 3119 3120 3122 3123 3124 3124 3125 3125 3126 3127 3128 3128 3129 3130 3131 3132 3133 3133 3134 3134 3134 3134 3134 3134 3134 3134 3134 3134 3134 3134 3134 3134 3134 3133 3133 3133 3132 3132 3131 3131 3130 3130 3129 3129 3129 3128 3128 3128 3128 3128 3127 3127 3126 3125 3124 3123 3122 3121 3121 3120 3120 3119 3118 3118 3117 3116 3115 3114 3114 3114 3113
3100 3101 3101 3101 3102 3103 3104 3105 3107 3110 3113 3114 3116 3117 3117 3118 3119 3121 3122 3122 3123 3124 3125 3126 3127 3127 3128 3129 3129 3130 3131 3131 3132 3132 3133 3133 3133 3133 3133 3133 3133 3133 3133 3133 3132 3132 3132 3132 3132 3131 3131 3130 3130 3129 3129 3128 3127 3127 3127 3126 3126 3126 3125 3125 3125 3125 3124 3123 3122 3121 3120 3119 3118 3118 3118 3117 3116 3115 3114 3114 3113 3112 3111 3110 3110
3101 3101 3101 3101 3102 3103 3103 3105 3107 3109 3111 3112 3114 3115 3116 3116 3117 3119 3120 3120 3120 3121 3121 3122 3123 3124 3125 3126 3127 3128 3129 3129 3130 3131 3131 3131 3132 3132 3131 3131 3131 3131 3131 3131 3130 3130 3130 3130 3130 3130 3129 3129 3128 3127 3127 3126 3126 3125 3124 3124 3123 3123 3122 3122 3122 3121 3121 3121 3120 3119 3118 3117 3116 3115 3115 3114 3113 3112 3112 3111 3110 3109 3109 3108 3107
3100 3100 3101 3101 3102 3102 3102 3103 3105 3106 3108 3109 3110 3111 3112 3113 3113 3114 3116 3117 3118 3119 3120 3120 3120 3121 3122 3123 3124 3125 3127 3128 3128 3129 3129 3129 3130 3130 3130 3129 3129 3129 3129 3129 3128 3128 3128 3128 3128 3128 3127 3126 3126 3125 3124 3124 3123 3122 3122 3121 3121 3121 3120 3119 3119 3118 3118 3117 3117 3116 3115 3114 3113 3112 3111 3111 3110 3110 3109 3109 3107 3106 3106 3105 3104
3099 3099 3099 3100 3100 3100 3101 3102 3103 3104 3105 3105 3105 3107 3109 3110 3110 3110 3110 3112 3113 3115 3118 3120 3120 3121 3122 3122 3121 3121 3123 3125 3126 3126 3127 3127 3127 3127 3127 3127 3127 3127 3126 3126 3126 3126 3126 3126 3126 3126 3125 3124 3123 3122 3121 3121 3120 3119 3119 3119 3118 3118 3117 3116 3115 3115 3114 3114 3113 3113 3112 3111 3110 3110 3109 3108 3107 3106 3106 3106 3106 3104 3103 3102 3102
3097 3097 3098 3098 3098 3098 3099 3101 3101 3101 3102 3103 3103 3105 3107 3108 3109 3110 3109 3109 3110 3112 3114 3117 3118 3119 3120 3121 3119 3117 3118 3121 3123 3124 3124 3124 3124 3123 3124 3124 3123 3124 3124 3124 3124 3124 3124 3124 3123 3123 3122 3121 3121 3120 3119 3118 3117 3116 3116 3115 3115 3114 3113 3113 3112 3111 3110 3109 3109 3109 3109 3108 3107 3106 3105 3105 3104 3103 3101 3101 3102 3102 3101 3100 3099
3095 3096 3096 3096 3097 3097 3097 3098 3099 3099 3101 3101 3101 3103 3104 3104 3105 3107 3108 3109 3111 3112 3113 3114 3115 3116 3117 3117 3117 3116 3116 3117 3120 3121 3120 3120 3120 3120 3120 3120 3120 3121 3121 3121 3121 3121 3121 3121 3121 3120 3120 3119 3118 3117 3116 3115 3114 3113 3113 3112 3112 3111 3110 3109 3108 3107 3106 3105 3105 3104 3104 3104 3103 3102 3102 3101 3100 3100 3099 3097 3097 3097 3097 3097 3096
3093 3093 3094 3094 3094 3095 3095 3095 3095 3097 3098 3098 3098 3099 3100 3100 3101 3103 3105 3107 3108 3109 3110 3111 3112 3112 3113 3114 3115 3116 3115 3114 3116 3117 3117 3117 3117 3117 3117 3117 3117 3118 3118 3118 3118 3118 3118 3118 3118 3117 3117 3116 3115 3114 3113 3112 3111 3111 3110 3109 3108 3107 3106 3105 3104 3103 3102 3102 3101 3100 3100 3099 3098 3097 3097 3096 3096 3095 3094 3094 3093 3092 3091 3092 3092
3090 3091 3091 3092 3092 3093 3093 3093 3093 3094 3094 3095 3095 3096 3097 3098 3099 3100 3102 3103 3104 3105 3107 3108 3108 3108 3109 3111 3113 3113 3113 3112 3113 3114 3114 3114 3115 3115 3115 3115 3115 3115 3116 3116 3116 3116 3116 3116 3115 3115 3114 3113 3112 3111 3110 3109 3108 3107 3106 3105 3104 3103 3102 3101 3100 3099 3098 3098 3097 3096 3095 3094 3094 3093 3092 3092 3091 3090 3089 3088 3088 3087 3087 3086 3087
3088 3088 3088 3089 3090 3090 3090 3091 3091 3091 3091 3092 3093 3093 3094 3096 3097 3098 3100 3100 3101 3103 3104 3105 3105 3106 3107 3108 3110 3110 3110 3111 3111 3112 3112 3112 3112 3112 3112 3113 3113 3113 3113 3113 3113 3113 3113 3113 3112 3111 3111 3110 3109 3108 3107 3105 3105 3104 3103 3101 3100 3099 3098 3097 3096 3095 3094 3094 3093 3091 3090 3089 3089 3088 3087 3087 3087 3086 3085 3084 3083 3082 3082 3081 3081
3086 3086 3086 3086 3087 3088 3088 3088 3089 3089 3089 3090 3091 3092 3093 3094 3095 3096 3097 3098 3099 3101 3102 3103 3103 3104 3104 3105 3106 3107 3108 3108 3109 3109 3109 3109 3109 3109 3110 3110 3110 3110 3110 3110 3110 3110 3109 3109 3108 3107 3107 3106 3105 3104 3103 3102 3101 3100 3099 3097 3096 3095 3095 3093 3092 3091 3090 3089 3088 3087 3086 3084 3084 3083 3082 3081 3081 3081 3080 3080 3079 3078 3077 3076 3075
3084 3084 3085 3085 3085 3086 3086 3086 3087 3087 3088 3088 3089 3090 3091 3092 3093 3094 3095 3096 3097 3098 3099 3100 3100 3101 3102 3103 3104 3105 3106 3106 3106 3106 3106 3106 3106 3106 3106 3107 3107 3107 3107 3106 3106 3105 3105 3105 3104 3103 3102 3101 3100 3100 3099 3098 3097 3096 3095 3094 3092 3092 3091 3089 3088 3087 3086 3085 3084 3083 3082 3080 3079 3078 3077 3076 3074 3074 3074 3074 3074 3073 3072 3072 3071
3080 3081 3082 3083 3084 3084 3084 3085 3085 3086 3086 3087 3088 3089 3090 3090 3091 3092 3093 3094 3095 3096 3097 3097 3098 3099 3100 3101 3102 3103 3103 3103 3103 3103 3103 3103 3103 3103 3103 3103 3103 3103 3103 3102 3102 3101 3101 3100 3100 3099 3098 3097 3096 3096 3095 3094 3093 3092 3091 3090 3089 3088 3086 3085 3084 3083 3081 3080 3079 3078 3077 3076 3075 3073 3072 3071 3069 3068 3067 3067 3067 3066 3065 3065 3066
3076 3076 3078 3079 3080 3081 3082 3083 3084 3084 3085 3086 3086 3087 3088 3089 3090 3090 3091 3092 3093 3094 3095 3096 3097 3098 3099 3099 3100 3100 3100 3100 3101 3101 3101 3100 3100 3100 3099 3099 3099 3099 3099 3099 3098 3098 3097 3096 3096 3095 3094 3093 3093 3092 3091 3091 3090 3088 3087 3086 3085 3084 3082 3081 3080 3079 3078 3076 3075 3073 3072 3071 3070 3068 3067 3066 3065 3063 3062 3061 3061 3059 3058 3058 3059
3073 3074 3074 3075 3077 3078 3079 3080 3081 3082 3083 3083 3084 3085 3086 3087 3088 3088 3089 3090 3091 3092 3093 3094 3095 3096 3096 3097 3097 3097 3098 3097 3097 3097 3097 3097 3097 3096 3096 3095 3095 3095 3095 3095 3095 3094 3094 3093 3092 3091 3090 3090 3089 3088 3087 3086 3085 3084 3083 3082 3081 3080 3078 3077 3076 3075 3073 3072 3070 3068 3067 3066 3065 3064 3062 3061 3060 3059 3057 3056 3055 3054 3052 3051 3051
3070 3071 3072 3073 3074 3075 3075 3077 3078 3079 3080 3081 3082 3082 3083 3084 3085 3086 3087 3088 3089 3089 3090 3091 3092 3092 3093 3093 3094 3094 3094 3094 3094 3094 3094 3094 3093 3093 3092 3092 3091 3091 3091 3091 3091 3091 3090 3090 3089 3088 3087 3086 3085 3084 3083 3082 3081 3080 3079 3078 3077 3075 3074 3073 3071 3069 3068 3066 3064 3063 3062 3061 3060 3059 3058 3056 3055 3054 3052 3050 3049 3048 3046 3045 3045
3066 3067 3068 3069 3071 3072 3072 3074 3075 3075 3077 3078 3079 3079 3080 3081 3082 3083 3084 3084 3085 3086 3087 3087 3088 3089 3089 3090 3090 3090 3090 3091 3090 3090 3090 3090 3089 3089 3089 3088 3088 3088 3087 3087 3087 3087 3086 3086 3085 3084 3084 3082 3081 3080 3079 3078 3077 3076 3074 3073 3072 3070 3069 3067 3065 3064 3062 3061 3060 3058 3057 3056 3054 3053 3053 3051 3050 3049 3047 3046 3044 3042 3041 3040 3039
3064 3065 3065 3066 3067 3068 3069 3070 3071 3072 3073 3074 3075 3076 3077 3078 3079 3079 3080 3081 3082 3082 3083 3084 3084 3085 3085 3086 3086 3086 3087 3087 3087 3086 3086 3086 3085 3085 3084 3084 3084 3083 3083 3083 3083 3082 3082 3081 3080 3080 3079 3078 3077 3076 3075 3074 3073 3071 3070 3069 3067 3065 3064 3062 3060 3059 3057 3056 3055 3054 3052 3051 3050 3048 3047 3046 3045 3044 3043 3041 3039 3037 3035 3034 3033
3062 3062 3063 3063 3064 3065 3065 3066 3067 3069 3070 3071 3072 3073 3073 3074 3075 3076 3076 3077 3078 3078 3079 3080 3080 3081 3082 3082 3082 3083 3083 3083 3083 3083 3082 3082 3081 3081 3080 3080 3080 3079 3079 3078 3078 3077 3077 3076 3075 3075 3074 3073 3072 3072 3071 3069 3068 3067 3065 3064 3062 3061 3059 3058 3056 3054 3052 3051 3049 3048 3047 3046 3045 3043 3042 3041 3039 3038 3036 3035 3034 3032 3030 3028 3027
3058 3059 3059 3059 3060 3061 3062 3062 3063 3065 3066 3067 3069 3070 3070 3071 3072 3072 3072 3073 3074 3075 3075 3076 3076 3077 3078 3078 3079 3079 3079 3079 3079 3079 3078 3078 3077 3077 3077 3076 3076 3075 3075 3074 3073 3072 3072 3071 3070 3070 3069 3069 3068 3067 3066 3064 3063 3062 3060 3059 3058 3056 3054 3053 3051 3049 3048 3046 3044 3043 3042 3040 3039 3038 3037 3035 3033 3032 3030 3029 3028 3026 3025 3022 3020
3054 3054 3054 3055 3056 3057 3057 3058 3060 3061 3061 3063 3064 3065 3066 3067 3067 3067 3068 3069 3069 3070 3071 3072 3073 3073 3074 3074 3075 3075 3075 3075 3075 3074 3074 3074 3073 3073 3073 3073 3072 3072 3071 3070 3069 3068 3067 3066 3066 3065 3064 3064 3063 3062 3061 3059 3058 3057 3055 3054 3053 3051 3050 3048 3046 3045 3043 3041 3040 3038 3037 3035 3034 3032 3031 3029 3027 3026 3024 3023 3022 3020 3019 3017 3015
3049 3050 3051 3051 3051 3052 3053 3054 3055 3056 3057 3058 3059 3060 3062 3062 3063 3063 3064 3064 3065 3066 3067 3068 3069 3069 3070 3070 3071 3071 3071 3070 3070 3070 3069 3069 3069 3069 3068 3068 3068 3068 3067 3066 3065 3064 3063 3062 3061 3061 3060 3059 3058 3057 3056 3055 3053 3052 3050 3049 3048 3047 3045 3044 3042 3040 3038 3037 3035 3033 3032 3031 3029 3027 3025 3023 3021 3020 3019 3017 3016 3014 3012 3011 3009
3043 3045 3046 3047 3047 3048 3049 3050 3051 3052 3053 3054 3054 3055 3057 3057 3058 3059 3060 3061 3061 3062 3063 3064 3065 3066 3066 3066 3066 3066 3066 3065 3065 3064 3064 3064 3064 3064 3064 3064 3063 3063 3062 3061 3060 3059 3058 3057 3056 3056 3055 3054 3053 3052 3051 3050 3049 3048 3046 3045 3044 3042 3041 3039 3037 3035 3033 3031 3030 3028 3027 3025 3023 3021 3019 3017 3015 3013 3011 3010 3008 3007 3005 3004 3002
3037 3038 3040 3041 3042 3043 3044 3045 3047 3048 3049 3049 3050 3051 3052 3053 3053 3054 3055 3056 3057 3058 3059 3060 3061 3062 3062 3061 3061 3061 3061 3061 3060 3059 3059 3059 3059 3059 3059 3059 3058 3058 3057 3056 3055 3054 3053 3052 3052 3051 3050 3049 3048 3048 3047 3046 3045 3044 3043 3042 3040 3038 3037 3035 3032 3030 3028 3026 3024 3023 3021 3019 3016 3014 3012 3010 3008 3006 3004 3002 3000 2999 2998 2996 2994
3031 3032 3033 3035 3036 3037 3038 3040 3041 3043 3044 3045 3046 3047 3047 3048 3049 3050 3051 3052 3053 3054 3055 3056 3057 3057 3057 3056 3056 3057 3057 3056 3055 3055 3055 3054 3054 3054 3054 3054 3053 3053 3052 3051 3050 3050 3049 3048 3047 3046 3045 3045 3044 3043 3042 3042 3041 3040 3039 3038 3036 3034 3032 3030 3028 3025 3023 3021 3019 3017 3015 3012 3010 3008 3005 3003 3001 2999 2996 2994 2992 2990 2989 2987 2985
3023 3025 3026 3028 3029 3030 3032 3033 3035 3037 3038 3040 3041 3042 3043 3044 3045 3046 3047 3048 3049 3050 3051 3051 3052 3052 3052 3051 3052 3052 3052 3051 3051 3051 3050 3049 3049 3049 3049 3049 3049 3048 3048 3047 3046 3045 3044 3043 3043 3042 3041 3041 3040 3039 3039 3038 3038 3037 3036 3034 3032 3030 3028 3026 3024 3021 3019 3016 3014 3011 3009 3006 3004 3001 2999 2996 2994 2992 2989 2987 2984 2982 2980 2978 2976
3016 3017 3019 3021 3022 3024 3025 3027 3028 3030 3032 3034 3035 3037 3038 3039 3040 3041 3042 3044 3045 3045 3046 3047 3047 3048 3047 3047 3047 3047 3046 3046 3046 3046 3046 3045 3045 3045 3045 3045 3045 3044 3044 3043 3042 3041 3040 3039 3038 3038 3037 3037 3036 3036 3036 3036 3035 3034 3032 3031 3029 3027 3024 3022 3019 3017 3014 3011 3009 3006 3003 3001 2998 2995 2992 2990 2988 2985 2983 2980 2977 2975 2973 2970 2968
3007 3010 3012 3014 3016 3018 3019 3021 3022 3023 3025 3027 3029 3031 3032 3034 3035 3036 3037 3039 3040 3041 3041 3042 3042 3043 3043 3043 3043 3043 3042 3042 3041 3041 3041 3041 3041 3041 3041 3041 3040 3040 3039 3038 3037 3036 3036 3035 3035 3034 3034 3034 3034 3034 3034 3033 3032 3031 3029 3027 3025 3023 3020 3018 3015 3012 3010 3007 3004 3001 2998 2995 2992 2989 2986 2984 2981 2979 2977 2974 2971 2969 2966 2964 2963
3000 3002 3004 3007 3009 3011 3013 3014 3016 3017 3019 3021 3023 3025 3027 3029 3030 3032 3033 3034 3035 3036 3037 3037 3038 3038 3039 3039 3039 3038 3038 3038 3037 3038 3038 3037 3037 3037 3037 3037 3036 3036 3035 3034 3033 3033 3032 3032 3032 3032 3032 3032 3032 3032 3031 3030 3029 3028 3026 3024 3022 3019 3016 3014 3011 3008 3005 3002 2999 2996 2993 2989 2986 2983 2981 2978 2975 2973 2971 2969 2966 2964 2962 2960 2959
2992 2994 2997 2999 3002 3004 3006 3008 3010 3012 3013 3015 3017 3019 3021 3023 3025 3027 3028 3030 3031 3031 3032 3033 3033 3034 3034 3034 3034 3034 3034 3034 3034 3034 3034 3034 3033 3033 3034 3033 3033 3033 3032 3031 3030 3030 3030 3030 3030 3030 3030 3030 3030 3029 3028 3027 3026 3024 3023 3021 3018 3016 3013 3010 3007 3004 3001 2997 2994 2991 2988 2984 2981 2978 2975 2973 2970 2968 2967 2965 2963 2961 2959 2958 2956
2984 2987 2990 2992 2995 2997 3000 3002 3004 3006 3008 3009 3011 3013 3015 3018 3020 3022 3023 3025 3026 3027 3028 3028 3029 3029 3030 3030 3030 3030 3030 3030 3031 3031 3030 3030 3030 3031 3031 3031 3030 3030 3029 3028 3028 3028 3028 3028 3028 3028 3028 3028 3027 3026 3025 3024 3023 3021 3019 3017 3015 3013 3010 3006 3003 3000 2996 2993 2989 2986 2983 2979 2976 2973 2971 2969 2966 2965 2963 2962 2960 2959 2957 2956 2954
2977 2980 2982 2985 2988 2990 2993 2996 2998 3000 3002 3004 3006 3008 3010 3012 3014 3017 3018 3020 3021 3022 3023 3024 3025 3025 3026 3026 3026 3026 3027 3027 3027 3027 3027 3027 3027 3028 3028 3028 3028 3028 3027 3027 3027 3027 3027 3027 3027 3027 3026 3026 3025 3024 3023 3021 3020 3018 3017 3015 3012 3009 3006 3002 2999 2996 2993 2989 2985 2982 2978 2975 2972 2969 2967 2966 2964 2962 2961 2959 2958 2957 2955 2954 2952
2970 2973 2975 2978 2981 2984 2986 2989 2991 2994 2996 2999 3001 3004 3006 3008 3010 3012 3014 3016 3017 3018 3019 3020 3021 3021 3022 3022 3022 3023 3023 3023 3023 3024 3024 3024 3024 3025 3025 3025 3026 3026 3025 3025 3025 3025 3025 3025 3025 3025 3024 3023 3022 3021 3020 3019 3017 3016 3014 3011 3008 3005 3002 2999 2996 2992 2989 2985 2981 2977 2974 2971 2969 2966 2965 2963 2962 2960 2959 2958 2957 2955 2954 2952 2950
2963 2965 2968 2971 2974 2977 2980 2982 2985 2987 2990 2993 2996 2999 3001 3004 3006 3008 3010 3011 3012 3013 3015 3016 3017 3017 3018 3018 3019 3019 3020 3020 3020 3021 3021 3021 3021 3022 3022 3023 3024 3024 3023 3023 3023 3023 3023 3023 3023 3023 3022 3021 3020 3019 3018 3017 3015 3013 3010 3007 3004 3001 2999 2995 2992 2988 2984 2980 2977 2973 2971 2968 2966 2964 2963 2961 2960 2959 2957 2956 2955 2954 2952 2950 2948
2956 2958 2962 2965 2968 2971 2974 2976 2979 2981 2984 2987 2991 2994 2996 2999 3001 3003 3005 3007 3008 3009 3011 3012 3013 3013 3014 3015 3015 3016 3016 3017 3018 3018 3018 3018 3019 3020 3020 3021 3021 3021 3021 3021 3021 3022 3022 3022 3021 3020 3020 3019 3018 3018 3016 3015 3013 3010 3007 3004 3001 2998 2995 2992 2988 2984 2980 2977 2973 2970 2968 2966 2964 2963 2961 2960 2959 2957 2956 2954 2953 2952 2950 2948 2946
2948 2952 2955 2959 2962 2965 2968 2971 2974 2976 2979 2982 2985 2989 2992 2994 2996 2998 3000 3002 3003 3005 3007 3008 3009 3010 3011 3011 3012 3013 3014 3014 3015 3016 3016 3016 3017 3018 3019 3019 3019 3019 3019 3019 3020 3020 3020 3020 3019 3019 3018 3018 3017 3016 3014 3012 3010 3007 3004 3002 2999 2996 2993 2990 2986 2982 2978 2974 2971 2968 2966 2964 2963 2961 2960 2959 2957 2956 2954 2952 2951 2950 2949 2947 2945
2942 2945 2949 2952 2956 2959 2963 2966 2969 2972 2975 2978 2981 2984 2987 2990 2992 2994 2996 2998 2999 3001 3003 3004 3005 3006 3007 3008 3009 3010 3011 3012 3013 3014 3014 3015 3016 3016 3017 3017 3017 3017 3017 3018 3018 3018 3018 3018 3017 3017 3017 3016 3015 3014 3012 3009 3007 3004 3002 3000 2997 2995 2992 2988 2984 2980 2976 2972 2969 2966 2964 2962 2961 2959 2958 2957 2956 2955 2953 2951 2950 2948 2947 2945 2943
2936 2940 2943 2947 2951 2954 2958 2961 2964 2967 2971 2974 2978 2981 2983 2986 2988 2990 2992 2995 2997 2998 3000 3001 3002 3003 3004 3005 3006 3007 3008 3010 3011 3012 3013 3014 3014 3014 3015 3015 3015 3015 3016 3016 3016 3017 3016 3016 3016 3016 3015 3014 3013 3011 3009 3007 3005 3003 3001 2998 2995 2993 2990 2987 2983 2979 2975 2971 2967 2965 2962 2961 2959 2958 2957 2956 2954 2953 2951 2950 2948 2947 2945 2943 2941
2932 2935 2939 2942 2946 2950 2954 2957 2960 2964 2967 2971 2974 2977 2980 2982 2985 2987 2990 2992 2994 2995 2996 2998 2999 3000 3002 3003 3004 3005 3007 3008 3009 3010 3011 3012 3012 3012 3013 3013 3013 3014 3014 3014 3015 3015 3015 3015 3015 3014 3014 3013 3011 3009 3007 3005 3004 3002 2999 2996 2994 2992 2989 2985 2982 2978 2973 2969 2966 2963 2961 2959 2958 2956 2955 2954 2953 2951 2950 2948 2947 2945 2943 2942 2940
2930 2933 2936 2940 2944 2947 2951 2955 2958 2961 2964 2968 2971 2974 2977 2979 2982 2985 2987 2989 2991 2992 2994 2995 2997 2998 2999 3001 3002 3004 3005 3007 3008 3009 3009 3010 3010 3010 3011 3011 3012 3012 3012 3013 3013 3014 3014 3014 3014 3013 3012 3010 3009 3007 3006 3005 3003 3000 2997 2995 2993 2990 2988 2985 2981 2977 2973 2969 2965 2962 2960 2958 2957 2955 2954 2952 2951 2950 2948 2946 2945 2944 2942 2940 2939
2931 2934 2936 2940 2943 2947 2950 2953 2956 2959 2962 2965 2969 2972 2975 2978 2980 2982 2984 2986 2988 2990 2991 2993 2994 2995 2997 2999 3001 3003 3004 3005 3006 3007 3007 3008 3009 3009 3010 3010 3011 3011 3012 3012 3012 3012 3013 3012 3012 3011 3010 3009 3007 3006 3005 3004 3002 2999 2996 2993 2991 2989 2987 2984 2980 2976 2973 2969 2965 2962 2959 2957 2956 2954 2952 2950 2949 2948 2946 2945 2943 2942 2941 2939 2938
2933 2935 2938 2941 2944 2947 2950 2953 2956 2959 2961 2964 2967 2970 2973 2976 2978 2980 2982 2984 2986 2988 2989 2991 2992 2994 2996 2998 3000 3002 3003 3004 3004 3005 3006 3007 3008 3008 3009 3009 3010 3010 3011 3011 3011 3011 3011 3011 3010 3009 3008 3007 3006 3005 3004 3002 3000 2997 2994 2992 2990 2988 2986 2983 2979 2976 2972 2968 2965 2961 2959 2956 2954 2953 2951 2949 2947 2946 2944 2943 2941 2941 2939 2938 2937
2937 2938 2940 2942 2945 2948 2951 2954 2956 2959 2961 2964 2967 2969 2972 2974 2976 2978 2980 2982 2984 2986 2988 2990 2992 2994 2996 2998 2999 3000 3001 3002 3003 3004 3005 3006 3007 3007 3008 3009 3009 3010 3010 3010 3010 3010 3010 3009 3009 3008 3007 3006 3005 3004 3002 3000 2998 2995 2993 2991 2990 2987 2985 2982 2979 2975 2972 2968 2964 2961 2958 2956 2953 2951 2950 2948 2946 2944 2943 2941 2940 2939 2938 2937 2936
2942 2943 2944 2946 2948 2950 2953 2955 2958 2960 2962 2965 2967 2969 2971 2973 2975 2977 2979 2981 2983 2985 2987 2989 2991 2993 2995 2996 2998 2999 3001 3002 3003 3004 3005 3005 3006 3007 3007 3008 3008 3008 3008 3008 3009 3009 3008 3008 3007 3006 3005 3004 3004 3003 3001 2999 2997 2994 2992 2991 2989 2986 2984 2981 2978 2975 2972 2968 2964 2961 2958 2955 2953 2950 2949 2947 2945 2943 2941 2940 2939 2938 2937 2936 2935
2947 2948 2949 2950 2952 2953 2955 2958 2960 2962 2963 2965 2967 2969 2970 2972 2974 2976 2979 2981 2983 2985 2987 2989 2991 2993 2995 2996 2998 2999 3000 3001 3002 3003 3004 3005 3005 3006 3007 3007 3007 3007 3007 3007 3007 3007 3007 3006 3006 3005 3004 3003 3003 3002 3001 2998 2996 2994 2992 2990 2988 2986 2983 2980 2977 2974 2971 2968 2965 2962 2958 2955 2953 2950 2948 2946 2944 2942 2941 2939 2938 2937 2936 2935 2934
2952 2953 2953 2954 2955 2957 2958 2960 2962 2963 2965 2966 2968 2970 2972 2974 2976 2978 2980 2982 2984 2986 2988 2990 2992 2993 2995 2996 2997 2999 3000 3000 3001 3002 3003 3004 3004 3005 3005 3006 3006 3006 3006 3006 3006 3006 3005 3005 3005 3004 3003 3002 3002 3001 3000 2998 2995 2994 2992 2990 2988 2986 2983 2980 2977 2974 2971 2968 2966 2962 2959 2956 2953 2950 2948 2946 2944 2942 2940 2939 2937 2936 2935 2935 2934
2959 2959 2959 2960 2960 2961 2963 2964 2966 2967 2968 2970 2971 2973 2975 2976 2978 2980 2982 2983 2985 2987 2989 2991 2992 2994 2995 2996 2997 2998 2999 3000 3001 3002 3002 3003 3003 3004 3004 3005 3005 3005 3005 3005 3005 3005 3004 3004 3004 3003 3002 3001 3001 3000 2999 2997 2995 2993 2992 2990 2988 2986 2983 2980 2977 2974 2971 2969 2966 2963 2960 2956 2953 2951 2948 2946 2944 2942 2940 2939 2937 2936 2935 2934 2933
2966 2966 2966 2967 2967 2968 2969 2970 2971 2971 2972 2973 2975 2976 2977 2979 2980 2982 2984 2985 2987 2989 2990 2991 2993 2994 2995 2996 2997 2998 2999 2999 3000 3001 3001 3002 3002 3003 3003 3004 3004 3004 3004 3004 3004 3004 3003 3003 3003 3002 3001 3000 3000 2999 2998 2996 2995 2993 2991 2990 2988 2985 2982 2980 2977 2974 2972 2969 2966 2963 2960 2957 2955 2952 2949 2947 2944 2942 2941 2939 2937 2936 2934 2933 2933
2972 2972 2972 2972 2972 2972 2973 2974 2974 2975 2976 2977 2978 2979 2980 2982 2983 2984 2986 2987 2988 2990 2991 2992 2993 2994 2995 2996 2997 2998 2998 2999 2999 3000 3000 3001 3002 3002 3003 3003 3003 3003 3003 3003 3003 3003 3003 3002 3002 3001 3000 2999 2998 2998 2997 2996 2994 2992 2991 2989 2987 2985 2982 2980 2977 2975 2972 2969 2967 2964 2961 2958 2955 2953 2950 2948 2945 2943 2941 2939 2938 2936 2934 2933 2932